Regional Weather Roundup
Issued by NWS

Home | Current Version | Previous Version | Graphics & Text | Print | Product List | Glossary On
Versions: 1 2 3 4 5 6 7 8 9 10 11 12 13 14 15 16 17 18 19 20 21 22 23 24 25 26 27 28 29 30 31 32 33 34 35 36 37 38 39 40 41 42 43 44 45 46 47 48 49 50
000
ASUS43 KFSD 271410
RWRSD

WEATHER ROUNDUP FOR SOUTH DAKOTA
NATIONAL WEATHER SERVICE SIOUX FALLS SD
800 AM CST SAT DEC 27 2014

NOTE: "FAIR" INDICATES FEW OR NO CLOUDS BELOW 12,000 FEET WITH NO
SIGNIFICANT WEATHER AND/OR OBSTRUCTIONS TO VISIBILITY.


SDZ001>005-009-010-012>017-271500-
NORTHWEST AND NORTH CENTRAL SOUTH DAKOTA

CITY           SKY/WX    TMP DP  RH WIND       PRES   REMARKS
BUFFALO          N/A     19  14  81 W16       29.99S WCI   4
FAITH            N/A     20  15  81 W10       30.09F WCI   9
MOBRIDGE       CLOUDY     7   1  76 SE7       30.09F WCI  -5
$$

SDZ012>016-024>037-041>051-057-063-072>074-271500-
SOUTHWEST AND SOUTH CENTRAL SOUTH DAKOTA

CITY           SKY/WX    TMP DP  RH WIND       PRES   REMARKS
RAPID CTY ARPT CLEAR      4  -1  80 CALM      30.10F
PIERRE         CLEAR      5   2  87 W10       30.16S WCI -10
CUSTER         CLEAR     11   6  81 W3        29.98S
ELLSWORTH AFB  CLEAR      8   4  84 W3        30.09S
PHILIP         CLOUDY    11   6  81 W8        30.16S WCI  -1
PINE RIDGE     PTCLDY     9   5  84 W3        30.14R
SPEARFISH      FAIR      18  10  73 W8        30.05S WCI   7
WINNER         FAIR      11   6  81 W8        30.16F WCI  -1
$$

SDZ004>011-016>023-039-040-271500-
NORTHEAST SOUTH DAKOTA

CITY           SKY/WX    TMP DP  RH WIND       PRES   REMARKS
ABERDEEN       CLEAR      2  -3  80 SW6       30.16F WCI  -9
WATERTOWN      CLEAR      4   1  88 NW6       30.10F WCI  -7
SISSETON         N/A      5   2  87 NW3       30.13F
$$

SDZ017-020-022-023-036>040-048>070-271500-
SOUTHEAST SOUTH DAKOTA

CITY           SKY/WX    TMP DP  RH WIND       PRES   REMARKS
SIOUX FALLS    CLOUDY    16  12  84 N15       30.16S WCI   1
HURON          PTCLDY     0  -3  87 W6        30.19R WCI -12
CHAMBERLAIN    PTCLDY     2  -1  87 W3        30.18S
MITCHELL       PTCLDY     7   4  87 W7        30.21S WCI  -5
YANKTON        PTCLDY    12   9  85 W9        30.22R WCI   0
$$

ABBREVIATIONS USED IN REMARKS
   TC - TEMPERATURE IN CELSIUS
  WCI - WIND CHILL INDEX
   HX - HEAT INDEX
  VSB - VISIBILITY



USA.gov is the U.S. government's official web portal to all federal, state and local government web resources and services.